SCOUT X-4 R/B

基本信息
目录编号:
907
目录名称:
SCOUT X-4 R/B
国际标识:
1964-064B
轨道中心:
EARTH
物体状态:
在轨
发射日期:
1964-10-10 UTC
国别:
美国 (US)
轨道信息
数据来源: 国际轨道数据
星历时间: 2026-07-14T04:43:41+0800
半长轴: 7338.668km
偏心率: 0.0119537
轨道倾角: 79.692°
近地点辐角: 233.342°
升交点赤经: 140.304°
平近点角: 125.670°
近地点: 872.806km
远地点: 1048.256km
周期: 104.276分钟
每日圈数: 13.809467
详细信息
发射场:
AFWTR
轨道高度:
LEO
数据来源:
AOE Integration Group
参考系:
TEME
时间系统:
UTC
历元类型:
SGP4
2D轨道图
3D轨道图
轨道高度分析图
轨道倾角分析图
轨道综合分析图
查看轨道综合分析图